• In Spain
  • List of Countries
  • For 7 days
  • Water Temperature
  • Satellite Maps
  • Weather Map
  • Weather Widgets
  • user-avatar
    Login

    Hourly Weather Malanje

    Today, 25 November, Saturday

    Time Temperature Precipitation Wind Pressure Humidity
    00:00 +20°C° 0.3 mm 1 mps 665 mmHg 98%
    01:00 +19°C° 0 mm 1 mps 665 mmHg 98%
    02:00 +19°C° 0 mm 1 mps 665 mmHg 98%
    03:00 +19°C° 0 mm 2 mps 665 mmHg 98%
    04:00 +19°C° 0 mm 2 mps 664 mmHg 98%
    05:00 +19°C° 0 mm 2 mps 665 mmHg 98%
    06:00 +19°C° 0 mm 2 mps 665 mmHg 97%
    07:00 +19°C° 0 mm 2 mps 665 mmHg 96%
    08:00 +20°C° 0 mm 2 mps 666 mmHg 93%
    09:00 +21°C° 0 mm 2 mps 666 mmHg 89%
    10:00 +23°C° 0 mm 2 mps 666 mmHg 86%
    11:00 +24°C° 0 mm 2 mps 665 mmHg 80%
    12:00 +26°C° 0 mm 2 mps 665 mmHg 74%
    13:00 +27°C° 0 mm 3 mps 665 mmHg 68%
    14:00 +27°C° 0.1 mm 3 mps 664 mmHg 69%
    15:00 +27°C° 0.1 mm 3 mps 664 mmHg 69%
    16:00 +27°C° 0.1 mm 2 mps 663 mmHg 70%
    17:00 +26°C° 0.2 mm 2 mps 663 mmHg 76%
    18:00 +24°C° 0.2 mm 2 mps 664 mmHg 82%
    19:00 +23°C° 0.2 mm 2 mps 664 mmHg 87%
    20:00 +21°C° 1.1 mm 2 mps 664 mmHg 90%
    21:00 +20°C° 1.1 mm 2 mps 665 mmHg 93%
    22:00 +19°C° 1.1 mm 2 mps 665 mmHg 95%
    23:00 +19°C° 0.9 mm 2 mps 665 mmHg 96%

    Tomorrow, 26 November, Sunday

    Time Temperature Precipitation Wind Pressure Humidity
    00:00 +19°C° 0.9 mm 2 mps 665 mmHg 97%
    01:00 +19°C° 0.9 mm 2 mps 665 mmHg 98%
    02:00 +19°C° 1 mm 2 mps 665 mmHg 98%
    03:00 +19°C° 1 mm 2 mps 664 mmHg 98%
    04:00 +19°C° 1 mm 2 mps 664 mmHg 98%
    05:00 +19°C° 0.4 mm 2 mps 665 mmHg 98%
    06:00 +19°C° 0.4 mm 2 mps 665 mmHg 97%
    07:00 +19°C° 0.4 mm 2 mps 666 mmHg 97%
    08:00 +19°C° 0.4 mm 2 mps 666 mmHg 96%
    09:00 +20°C° 0.4 mm 2 mps 666 mmHg 96%
    10:00 +20°C° 0.4 mm 2 mps 666 mmHg 96%
    11:00 +20°C° 0.6 mm 2 mps 666 mmHg 94%
    12:00 +20°C° 0.6 mm 2 mps 666 mmHg 92%
    13:00 +21°C° 0.6 mm 2 mps 665 mmHg 90%
    14:00 +21°C° 0.4 mm 2 mps 665 mmHg 89%
    15:00 +21°C° 0.4 mm 2 mps 665 mmHg 88%
    16:00 +23°C° 0.4 mm 2 mps 665 mmHg 87%
    17:00 +21°C° 0.3 mm 2 mps 665 mmHg 90%
    18:00 +20°C° 0.3 mm 2 mps 665 mmHg 93%
    19:00 +19°C° 0.3 mm 2 mps 665 mmHg 96%
    20:00 +20°C° 0.1 mm 1 mps 666 mmHg 97%
    21:00 +20°C° 0.1 mm 1 mps 666 mmHg 97%
    22:00 +20°C° 0.1 mm 1 mps 667 mmHg 97%
    23:00 +19°C° 0.2 mm 1 mps 666 mmHg 98%

    Day after tomorrow, 27 November, Monday

    Time Temperature Precipitation Wind Pressure Humidity
    00:00 +19°C° 0.2 mm 1 mps 666 mmHg 98%
    01:00 +19°C° 0.2 mm 1 mps 666 mmHg 98%
    02:00 +19°C° 0.7 mm 1 mps 666 mmHg 98%
    03:00 +19°C° 0.7 mm 1 mps 665 mmHg 98%
    04:00 +19°C° 0.7 mm 1 mps 665 mmHg 98%
    05:00 +19°C° 0.2 mm 1 mps 666 mmHg 98%
    06:00 +19°C° 0.2 mm 2 mps 666 mmHg 97%
    07:00 +19°C° 0.2 mm 2 mps 667 mmHg 96%
    08:00 +19°C° 0.1 mm 2 mps 667 mmHg 95%
    09:00 +20°C° 0.1 mm 2 mps 667 mmHg 93%
    10:00 +20°C° 0.1 mm 2 mps 667 mmHg 92%
    11:00 +21°C° 0.2 mm 2 mps 667 mmHg 88%
    12:00 +23°C° 0.2 mm 2 mps 667 mmHg 83%
    13:00 +24°C° 0.2 mm 3 mps 666 mmHg 79%
    14:00 +22°C° 0.3 mm 3 mps 666 mmHg 81%
    15:00 +23°C° 0.3 mm 2 mps 665 mmHg 83%
    16:00 +23°C° 0.3 mm 2 mps 664 mmHg 85%
    17:00 +21°C° 0.1 mm 2 mps 665 mmHg 88%
    18:00 +20°C° 0.1 mm 2 mps 665 mmHg 91%
    19:00 +19°C° 0.1 mm 2 mps 665 mmHg 94%
    20:00 +19°C° 0 mm 2 mps 666 mmHg 95%
    21:00 +19°C° 0 mm 2 mps 666 mmHg 96%
    22:00 +19°C° 0 mm 1 mps 666 mmHg 97%
    23:00 +19°C° 0 mm 1 mps 666 mmHg 98%

    28 November, Tuesday

    Time Temperature Precipitation Wind Pressure Humidity
    00:00 +19°C° 0 mm 1 mps 665 mmHg 98%
    01:00 +19°C° 0 mm 1 mps 665 mmHg 98%
    02:00 +19°C° 0 mm 1 mps 665 mmHg 98%
    03:00 +19°C° 0 mm 1 mps 664 mmHg 98%
    04:00 +19°C° 0 mm 1 mps 664 mmHg 98%
    05:00 +19°C° 0.1 mm 1 mps 665 mmHg 97%
    06:00 +19°C° 0.1 mm 1 mps 665 mmHg 96%
    07:00 +20°C° 0.1 mm 1 mps 666 mmHg 95%
    08:00 +21°C° 0.1 mm 1 mps 666 mmHg 91%
    09:00 +22°C° 0.1 mm 1 mps 667 mmHg 87%
    10:00 +23°C° 0.1 mm 1 mps 667 mmHg 84%
    11:00 +25°C° 0 mm 1 mps 666 mmHg 78%
    12:00 +26°C° 0 mm 2 mps 666 mmHg 71%
    13:00 +27°C° 0 mm 2 mps 665 mmHg 65%
    14:00 +27°C° 0.1 mm 2 mps 665 mmHg 67%
    15:00 +27°C° 0.1 mm 2 mps 664 mmHg 68%
    16:00 +27°C° 0.1 mm 2 mps 664 mmHg 70%
    17:00 +25°C° 0.4 mm 2 mps 664 mmHg 77%
    18:00 +23°C° 0.4 mm 2 mps 665 mmHg 84%
    19:00 +20°C° 0.4 mm 2 mps 665 mmHg 91%
    20:00 +20°C° 0.2 mm 2 mps 665 mmHg 91%
    21:00 +19°C° 0.2 mm 2 mps 665 mmHg 91%
    22:00 +19°C° 0.2 mm 2 mps 666 mmHg 92%
    23:00 +19°C° 0 mm 2 mps 665 mmHg 91%

    29 November, Wednesday

    Time Temperature Precipitation Wind Pressure Humidity
    00:00 +18°C° 0 mm 2 mps 665 mmHg 91%
    01:00 +18°C° 0 mm 2 mps 664 mmHg 91%
    02:00 +18°C° 0 mm 2 mps 664 mmHg 91%
    03:00 +18°C° 0 mm 2 mps 664 mmHg 91%
    04:00 +19°C° 0 mm 1 mps 664 mmHg 91%
    05:00 +19°C° 0 mm 1 mps 665 mmHg 91%
    06:00 +20°C° 0 mm 1 mps 665 mmHg 90%
    07:00 +20°C° 0 mm 1 mps 666 mmHg 90%
    08:00 +22°C° 0 mm 1 mps 666 mmHg 83%
    09:00 +23°C° 0 mm 1 mps 667 mmHg 77%
    10:00 +25°C° 0 mm 1 mps 667 mmHg 71%
    11:00 +26°C° 0.4 mm 2 mps 666 mmHg 71%
    12:00 +26°C° 0.4 mm 2 mps 665 mmHg 72%
    13:00 +27°C° 0.4 mm 2 mps 665 mmHg 72%
    14:00 +26°C° 1.1 mm 2 mps 664 mmHg 78%
    15:00 +25°C° 1.1 mm 2 mps 664 mmHg 84%
    16:00 +24°C° 1.1 mm 1 mps 663 mmHg 90%
    17:00 +23°C° 1.1 mm 1 mps 664 mmHg 91%
    18:00 +22°C° 1.1 mm 1 mps 664 mmHg 93%
    19:00 +21°C° 1.1 mm 1 mps 665 mmHg 95%
    20:00 +21°C° 1 mm 1 mps 665 mmHg 95%
    21:00 +21°C° 1 mm 1 mps 666 mmHg 96%
    22:00 +20°C° 1 mm 1 mps 666 mmHg 96%
    23:00 +20°C° 0.9 mm 1 mps 665 mmHg 97%

    30 November, Thursday

    Time Temperature Precipitation Wind Pressure Humidity
    00:00 +20°C° 0.9 mm 1 mps 665 mmHg 97%
    01:00 +20°C° 0.9 mm 1 mps 665 mmHg 98%
    02:00 +20°C° 1.1 mm 1 mps 665 mmHg 98%
    03:00 +20°C° 1.1 mm 1 mps 665 mmHg 98%
    04:00 +20°C° 1.1 mm 1 mps 665 mmHg 98%
    05:00 +20°C° 0.7 mm 1 mps 665 mmHg 98%
    06:00 +20°C° 0.7 mm 1 mps 666 mmHg 98%
    07:00 +20°C° 0.7 mm 1 mps 666 mmHg 98%
    08:00 +21°C° 0.6 mm 1 mps 666 mmHg 96%
    09:00 +21°C° 0.6 mm 1 mps 667 mmHg 95%
    10:00 +22°C° 0.6 mm 1 mps 667 mmHg 93%
    11:00 +22°C° 0.9 mm 1 mps 666 mmHg 93%
    12:00 +23°C° 0.9 mm 1 mps 666 mmHg 92%
    13:00 +23°C° 0.9 mm 1 mps 665 mmHg 91%
    14:00 +23°C° 1 mm 1 mps 665 mmHg 93%
    15:00 +22°C° 1 mm 1 mps 665 mmHg 94%
    16:00 +22°C° 1 mm 1 mps 664 mmHg 96%
    17:00 +21°C° 0.6 mm 1 mps 664 mmHg 97%
    18:00 +21°C° 0.6 mm 1 mps 665 mmHg 97%
    19:00 +20°C° 0.6 mm 1 mps 665 mmHg 98%
    20:00 +20°C° 0.6 mm 1 mps 665 mmHg 98%
    21:00 +20°C° 0.6 mm 1 mps 666 mmHg 99%
    22:00 +20°C° 0.6 mm 1 mps 666 mmHg 99%
    23:00 +20°C° 1.2 mm 1 mps 666 mmHg 99%
    Show more